Location: Mound City (historical)
(34.0564°N, 117.2656°W)
Time: 02:27:55
(UTC+00:00)

CENTAUR R/B - Pass Details

Date: 08 September 2024
Orbit: 661 x 1523 km, 63.4° (Epoch: 03 October)

Event Time Altitude Azimuth Distance (km) Brightness Sun altitude
Exits shadow 12:51:53 10° 257° (WSW) 2,392 3.9 -8.2°
Reaches altitude 10° 12:51:55 10° 257° (WSW) 2,383 3.8 -8.2°
Maximum altitude 12:56:34 27° 315° (NW) 1,657 3.5 -7.2°
Drops below altitude 10° 13:02:05 10° 12° (NNE) 2,856 5.3 -6.1°
Sets 13:05:29 0° 23° (NNE) 3,976 6.2 -5.4°
